Regional Weather Roundup
Issued by NWS

Home | Current Version | Previous Version | Graphics & Text | Print | Product List | Glossary On
Versions: 1 2 3 4 5 6 7 8 9 10 11 12 13 14 15 16 17 18 19 20 21 22 23 24 25 26 27 28 29 30 31 32 33 34 35 36 37 38 39 40 41 42 43 44 45 46 47 48 49 50
000
ASUS45 KSLC 010110
RWRUT

UTAH REGIONAL WEATHER ROUNDUP
NATIONAL WEATHER SERVICE SALT LAKE CITY UT
700 PM MDT THU JUL 31 2014

UTZ001>011-023>025-010200-

NORTHERN UTAH

CITY           SKY/WX    TMP DP  RH WIND       PRES   REMARKS
HILL AFB       PTSUNNY   82  51  34 NW9       30.14F
LOGAN          SUNNY     82  51  34 VRB5      30.11F
OGDEN          PTSUNNY   82  50  32 W8        30.11S
PROVO AIRPORT  PTSUNNY   79  59  50 NW9       30.14S
SALT LAKE CITY PTSUNNY   83  50  31 W12       30.10S
VERNAL         MOSUNNY   81  41  24 N7        30.13S
WENDOVER       CLOUDY    81  45  28 W12       30.15F
HEBER CITY     RAIN      72  59  64 N15       30.19S VSB 1
WEST JORDAN    SUNNY     82  57  42 NW6       30.14F

$$

UTZ012>022-026-027-010200-

SOUTHERN UTAH

CITY           SKY/WX    TMP DP  RH WIND       PRES   REMARKS
BRYCE CANYON   PTSUNNY   71  52  50 W9        30.31F
CEDAR CITY     PTSUNNY   78  48  34 NE13      30.16F
MILFORD        CLOUDY    74  56  53 NE9       30.14F
MOAB/CYNLANDS  SUNNY     87  44  22 CALM      30.02F
PRICE          RAIN      70  54  56 E10       30.18R
ST GEORGE      CLOUDY   100  45  15 SW15      29.89F HX  96
KANAB          PTSUNNY   88  45  22 E12       30.10S

$$

REGIONAL REPORTS     COLORADO/ARIZONA

CITY           SKY/WX    TMP DP  RH WIND       PRES   REMARKS
CRAIG, CO      MOSUNNY   68  47  46 CALM      30.19F
GRAND JUNCTION PTSUNNY   82  48  30 W7        30.06F
RIFLE          MOSUNNY   83  45  26 NW14      30.11S
MONTROSE       PTSUNNY   81  51  35 CALM      30.16S
CORTEZ         PTSUNNY   81  47  30 W8        30.14F
PAGE, AZ       PTSUNNY   90  46  21 S20G25    30.02R
GRAND CANYON   CLOUDY    66  53  63 S9        30.28F
KINGMAN        PTSUNNY   98  41  14 W13       29.97F HX  93
FLAGSTAFF      CLOUDY    58  55  90 CALM      30.35F

$$

REGIONAL REPORTS    NEVADA/IDAHO/WYOMING

CITY           SKY/WX    TMP DP  RH WIND       PRES   REMARKS
LAS VEGAS, NV  PTSUNNY  106  38   9 W16       29.79F HX 100
ELY            MOSUNNY   74  44  34 N24G33    30.27R
ELKO           CLOUDY    67  51  56 NE15      30.23F
POCATELLO, ID  MOSUNNY   88  41  19 N9        30.11F
BURLEY         CLOUDY    84  45  25 N5        30.07F
EVANSTON, WY   MOSUNNY   74  37  26 NE7       30.31S
ROCK SPRINGS   MOSUNNY   77  26  15 E12       30.27F

$$


USA.gov is the U.S. government's official web portal to all federal, state and local government web resources and services.